031  
ASPQ40 PGUM 151210  
RWRPQ  
WEATHER ROUNDUP FOR THE MARIANAS AND MICRONESIA  
NATIONAL WEATHER SERVICE TIYAN GU  
1000 PM CHST SAT AUG 15 2020  
 
GUZ001>004-151300-  
MARIANA ISLANDS-  
 
CITY SKY/WX TMP DP RH WIND PRES REMARKS
 
GUAM AIRPORT CLEAR 81 75 83 NE5 29.86R  
ANDERSEN AFB MOCLDY 81 75 83 E7 29.86R  
ROTA AIRPORT NOT AVBL  
TINIAN AP NOT AVBL  
SAIPAN AP CLEAR 82 79 89 NE6 29.85R HX 93  
 

 
 
PMZ161-151300-  
REPUBLIC OF PALAU-  
 
CITY SKY/WX TMP DP RH WIND PRES REMARKS
 
KOROR AP MOCLDY 82 75 78 SW7 29.82R  
KOROR WSO NOT AVBL  
 

 
 
PMZ171>174-151300-  
FEDERATED STATES OF MICRONESIA-  
 
CITY SKY/WX TMP DP RH WIND PRES REMARKS
 
YAP AIRPORT PTCLDY 81 77 89 VRB5 29.84R  
CHUUK AP CLOUDY 81 77 89 VRB3 29.81R  
POHNPEI AP NOT AVBL  
POHNPEI WSO PTCLDY 75 72 88 SE3 29.87S  
KOSRAE AP NOT AVBL  
 

 
 
PMZ181-151300-  
REPUBLIC OF THE MARSHALL ISLANDS-  
 
CITY SKY/WX TMP DP RH WIND PRES REMARKS
 
KWAJALEIN AP PTCLDY 82 77 83 N8 29.80S HX 91  
MAJURO AP NOT AVBL  
MAJURO WSO MOCLDY 84 77 79 S6 29.78F HX 94  
 

 
 
 
 
CLICK HERE TO GO TO PREVIOUS BULLETINS.

The Nexlab GU Page Main Text Page